Location: Brahman Valley
(40.6513°N, 111.8855°W)
Time: 22:01:29
(UTC+00:00)

Vanguard 2 - Pass Details

Date: 18 May 2021
Orbit: 552 x 2937 km, 32.9° (Epoch: 14 June)

Event Time Altitude Azimuth Distance (km) Brightness Sun altitude
Rises 17:42:22 0° 275° (W) 5,625 11.7 59.9°
Reaches altitude 10° 17:46:23 10° 266° (W) 4,930 11.5 60.5°
Maximum altitude 17:58:22 30° 213° (SSW) 4,135 11.7 62.2°
Drops below altitude 10° 18:12:23 10° 161° (SSE) 5,742 12.5 64.1°
Sets 18:17:39 0° 151° (SSE) 6,660 12.7 64.7°
